Home > Weather > Concord > Past weeks

Flag for U.S.A. Weather for the Past 2 Weeks in Concord, California, U.S.A.

Now
52 °F

Clear.


Feels Like: 50 °F
Forecast: 48 / 77 °F
Wind: 6 mph from South

Location: Buchanan Field

Current Time: Feb 14, 2016 at 3:02:34 AM

Latest Report: Feb 14, 2016 at 1:53 AM


Visibility: 10 mi

Pressure: 30.24 "Hg

Humidity: 75%

Dew point: 44 °F

Location of ConcordLocation

Historic Weather in Concord — Graph

°F

Concord Temperature Yesterday

Maximum temperature yesterday: 73 °F (at 3:53 PM)
Minimum temperature yesterday: 48 °F (at 5:53 AM)
Average temperature yesterday: 60 °F

High & Low Weather Summary for the Past Weeks

 TemperatureHumidityPressure
High75 °F (Feb 8, 3:53 PM)90% (Feb 10, 3:53 AM)30.45 "Hg (Feb 10, 3:53 AM)
Low37 °F (Feb 5, 6:53 AM)27% (Feb 1, 2:53 PM)29.70 "Hg (Jan 31, 2:53 PM)
Average54 °F66%30.19 "Hg
* Reported Jan 30 1:53 AM — Feb 14 1:53 AM, Concord, Weather by CustomWeather, © 2016

Note: Actual official high and low records may vary slightly from our data, if they occured in-between our weather recording intervals... More about our weather records

Advertising

Concord Weather History for the Previous 24 Hours

 ConditionsComfort  
Time TempWeatherWind HumidityBarometerVisibility
1:53 AM
Sun, Feb 14
52 °FClear.6 mph75%30.24 "Hg10 mi
12:53 AM54 °FClear.5 mph72%30.24 "Hg10 mi
11:53 PM
Sat, Feb 13
55 °FClear.3 mph69%30.24 "Hg10 mi
10:53 PM57 °FClear.3 mph64%30.24 "Hg10 mi
9:53 PM57 °FClear.No wind67%30.23 "Hg10 mi
8:53 PM60 °FClear.No wind62%30.21 "Hg10 mi
7:53 PM61 °FClear.No wind60%30.20 "Hg10 mi
6:53 PM65 °FClear.3 mph54%30.18 "Hg10 mi
5:53 PM68 °FClear.3 mph45%30.16 "Hg10 mi
4:53 PM71 °FSunny.6 mph41%30.14 "Hg10 mi
3:53 PM73 °FSunny.8 mph37%30.14 "Hg10 mi
2:53 PM72 °FSunny.8 mph40%30.16 "Hg10 mi
1:53 PM72 °FSunny.9 mph40%30.16 "Hg10 mi
12:53 PM69 °FSunny.7 mph47%30.20 "Hg10 mi
11:53 AM67 °FSunny.6 mph51%30.22 "Hg10 mi
10:53 AM64 °FSunny.5 mph58%30.24 "Hg10 mi
9:53 AM60 °FSunny.No wind69%30.24 "Hg10 mi
8:53 AM53 °FSunny.No wind86%30.24 "Hg10 mi
7:53 AM49 °FSunny.3 mph86%30.23 "Hg9 mi
6:53 AM48 °FClear.No wind89%30.22 "Hg8 mi
5:53 AM48 °FClear.3 mph89%30.20 "Hg10 mi
4:53 AM50 °FClear.No wind89%30.19 "Hg9 mi
3:53 AM51 °FClear.No wind89%30.18 "Hg10 mi
Weather by CustomWeather, © 2016

See weather overviewHow to use our weather pages